Terminal Aerodrome Forecast
Issued by NWS Detroit/Pontiac, MI

Home | Current Version | Previous Version | Text Only | Print | Product List | Glossary On
Versions: 1 2 3 4 5 6 7 8 9 10 11 12 13 14 15 16 17 18 19 20 21 22 23 24 25 26 27
000
FTUS43 KDTX 291100
TAFDTW
TAF
KDTW 291123Z 2912/3018 09005KT P6SM BKN250
     FM291400 15008KT P6SM SCT060 BKN100 OVC180
     FM301300 19011KT P6SM SCT040 BKN060 OVC100
      TEMPO 3016/3018 5SM -SHRA OVC040=

USA.gov is the U.S. government's official web portal to all federal, state and local government web resources and services.